User: anonymous   Login
Location: Phoenix
(33.4480°N, 112.0730°W)
Time: 12:12:31
(UTC-07:00)
Language:

Hubble Space Telescope - Orbit

View from above orbital plane
View from above orbital plane
View from above satellite
View from above satellite

Ground track
Ground track

The orbit data is extracted from the following two-line orbital elements,

1 20580U 90037B   15084.53278935  .00003206  00000-0  19714-3 0  9990
2 20580 028.4711 345.6306 0003225 058.8976 304.9064 15.07041330167174
Epoch (UTC): 25 March 2015 12:47:13
Eccentricity: 0.0003225
inclination: 28.4711°
perigee height: 543 km
apogee height: 547 km
right ascension of ascending node: 345.6306°
argument of perigee: 58.8976°
revolutions per day: 15.07041330
mean anomaly at epoch: 304.9064°
orbit number at epoch: 16717

The dashed part of the orbit path shows where the satellite is in the earth's shadow,  

DLR